Wind_Speed
16 17 18 18 15 14 16 17 15 15 15 14 13 13 14 14 14 14 16 20 23 24 24 24 23 21 19 19 18 18 19 18 18 18 17 18 18 18 18 17 16 15 14 14 13 12 11 11 10 9 8 8 7 7 6 6 6 6 7 7 8 8 9
13 14 16 17 16 14 15 17 17 15 15 15 16 16 16 15 15 14 15 19 23 25 24 25 25 23 21 20 19 19 19 19 19 18 17 17 17 18 19 18 17 16 16 15 14 13 12 11 10 9 8 8 8 7 7 6 6 6 7 8 8 8 9
14 14 14 16 17 16 15 16 17 15 15 16 16 17 16 15 15 14 15 18 22 25 25 25 26 26 25 23 20 19 19 19 19 18 17 17 17 18 19 19 18 17 16 15 14 14 13 12 11 10 10 9 9 8 7 7 7 7 8 9 9 9 10
16 14 14 16 18 19 18 17 18 17 16 16 17 18 18 17 17 16 15 17 21 24 25 26 26 28 28 26 23 20 19 19 19 18 18 18 18 18 18 18 18 17 16 16 15 15 13 13 12 11 11 11 10 9 8 7 7 8 9 10 10 10 11
18 16 16 16 17 18 18 17 18 17 16 17 18 19 20 20 19 17 15 14 18 22 26 28 29 29 29 29 27 24 22 21 20 20 19 19 18 18 17 17 17 17 17 17 16 15 14 14 13 12 12 11 11 9 8 7 8 9 11 11 12 12 12
21 19 17 15 14 15 16 17 17 17 17 18 19 20 21 21 19 17 14 13 15 20 25 28 29 29 28 28 28 27 25 23 22 22 21 20 19 18 17 17 17 16 17 17 16 16 15 14 13 13 12 11 11 10 8 7 8 10 12 13 13 13 12
23 21 20 18 15 14 16 18 18 18 18 20 21 22 22 21 20 18 15 13 14 18 22 25 27 27 27 27 28 28 27 26 24 23 22 21 20 19 19 18 17 17 16 16 16 15 15 14 14 13 12 11 11 10 9 8 9 11 13 14 14 13 12
25 24 23 23 20 18 19 20 20 20 19 20 22 23 23 22 21 19 16 14 14 17 20 23 26 27 27 27 27 27 28 28 27 25 24 23 22 21 21 19 18 18 17 15 15 15 14 14 14 12 11 11 10 10 9 9 10 13 14 15 14 14 13
30 28 28 28 27 26 25 25 25 24 22 21 22 23 23 23 21 19 18 16 15 16 18 22 25 28 29 28 28 28 29 29 29 27 26 24 23 23 23 22 22 20 18 18 17 16 15 14 13 12 11 10 10 9 9 10 12 14 16 16 16 15 13
33 32 33 34 34 34 34 32 32 31 27 24 25 25 24 24 23 21 20 19 17 17 19 22 25 28 29 29 29 29 30 30 30 29 27 25 25 25 25 24 24 22 21 21 20 18 17 16 14 12 11 10 10 10 10 11 13 16 18 18 17 16 15
35 35 36 37 38 39 39 38 37 36 33 30 30 29 27 27 26 24 23 21 19 19 20 22 25 27 29 30 30 31 30 31 31 30 28 27 26 26 26 26 25 24 23 23 21 20 19 18 16 14 13 12 12 11 12 13 14 16 19 19 19 17 16
38 38 38 39 40 41 41 40 40 39 37 34 34 33 32 31 30 28 26 25 23 22 22 23 24 27 29 30 31 31 31 31 31 30 30 29 28 28 28 27 26 25 24 24 23 22 21 19 18 17 16 16 15 13 13 14 15 17 19 20 20 19 17
41 40 40 40 41 41 42 42 41 41 40 37 36 34 33 34 34 33 32 30 28 27 25 25 25 26 28 30 31 31 31 30 29 29 30 30 30 30 29 28 27 26 25 24 24 23 22 21 20 19 19 18 17 15 14 14 15 16 18 20 21 20 19
43 42 41 41 41 42 43 43 43 43 43 41 38 35 34 35 35 36 36 34 33 32 31 29 28 28 28 29 30 30 30 30 29 30 30 31 32 32 31 29 27 27 26 26 25 24 23 22 22 22 22 20 19 17 15 15 15 16 17 19 21 22 20
45 44 43 42 42 42 43 44 44 44 45 44 41 38 36 37 37 38 38 37 36 36 35 35 33 32 31 30 30 29 30 31 31 31 31 32 33 33 32 31 29 28 28 27 26 25 25 24 24 23 23 21 20 18 17 15 15 16 17 19 21 23 22
45 46 45 43 43 43 43 45 45 45 46 46 44 40 38 39 40 40 40 40 40 40 39 38 36 35 34 33 31 29 29 29 30 31 32 31 31 32 32 32 31 30 29 28 27 27 26 26 25 24 23 22 20 19 17 16 16 17 18 19 21 23 23
46 46 47 46 45 45 44 45 46 46 47 48 46 43 41 41 42 43 43 43 43 42 40 37 34 33 32 32 32 30 27 26 26 28 30 31 31 31 32 32 32 31 30 29 29 28 28 27 26 25 24 23 22 20 18 17 17 18 18 20 21 23 24
47 48 48 48 47 47 46 46 46 47 48 48 47 45 44 44 44 45 45 44 43 43 42 38 34 33 32 30 31 30 28 27 26 27 30 32 32 32 32 32 33 32 32 31 30 30 29 28 27 26 25 25 23 21 19 19 19 19 19 20 21 22 24
49 49 50 50 49 48 47 46 45 44 45 47 47 47 47 46 46 47 47 47 46 44 42 40 38 37 35 32 30 29 29 29 29 30 31 33 34 34 34 34 34 33 33 33 33 33 31 30 28 28 27 26 25 23 21 21 21 21 21 20 21 22 23
54 51 50 51 51 49 48 46 43 42 43 45 46 47 49 48 48 48 48 48 47 44 41 41 39 37 37 35 32 30 30 29 29 30 32 33 35 36 35 34 34 34 35 35 35 35 33 32 31 30 29 27 26 25 24 24 24 23 23 22 22 23 23
61 55 52 53 53 52 50 49 46 43 43 44 44 46 49 50 50 49 48 49 47 43 41 42 39 35 36 37 35 33 32 29 28 30 33 34 35 36 36 35 34 34 35 36 37 36 35 35 33 32 31 30 29 28 27 26 26 26 25 24 24 24 24
63 59 56 56 56 55 54 53 51 48 46 45 45 47 49 51 51 50 49 49 47 42 41 41 39 37 37 37 35 34 33 31 30 32 34 34 35 35 35 35 34 34 35 36 37 37 37 36 35 34 33 32 31 30 28 28 28 28 27 26 26 26 25
59 60 59 59 59 59 58 57 55 52 49 47 46 48 49 50 50 49 50 51 49 44 41 40 39 38 39 39 38 37 36 35 34 34 35 35 34 34 34 34 35 35 36 36 37 37 37 37 36 36 36 35 34 32 30 30 31 30 30 29 29 28 26
55 58 61 63 63 62 62 60 58 55 52 51 49 48 50 51 51 49 49 50 49 45 42 40 39 39 41 41 40 39 38 37 35 34 34 34 32 32 32 33 35 36 37 37 37 37 37 37 38 38 37 37 36 34 33 33 33 33 33 32 31 30 28
58 53 54 59 65 67 65 62 61 57 54 53 53 51 51 53 53 50 46 45 45 44 43 41 40 41 42 42 41 40 40 37 33 31 31 31 31 30 31 32 34 36 38 38 38 38 38 38 39 38 38 38 37 36 35 35 35 35 35 34 34 31 29
68 58 49 48 58 67 69 65 62 59 56 54 54 55 53 53 54 52 47 44 43 44 43 41 41 42 43 42 41 41 40 38 33 31 30 31 31 30 30 31 33 36 38 38 39 39 39 39 39 39 38 38 38 38 37 36 37 37 36 36 36 33 32
73 68 57 47 46 54 64 67 63 58 57 56 54 54 55 56 55 52 48 45 44 44 44 43 43 44 45 43 42 41 40 38 35 32 32 32 33 32 31 31 32 34 37 38 39 40 40 39 39 38 38 38 38 38 37 37 37 37 37 37 37 35 35
75 72 67 57 46 43 51 61 63 59 58 58 56 53 54 57 56 53 49 46 45 45 46 46 45 46 47 46 44 42 40 39 37 35 34 35 35 34 33 32 32 34 36 37 39 39 39 39 39 38 37 37 37 37 36 36 37 37 37 37 37 37 37
80 75 71 66 58 49 46 51 59 62 59 57 56 55 54 55 56 54 51 48 47 47 47 47 47 47 47 46 46 45 42 41 39 37 37 38 38 37 36 34 33 34 35 36 37 38 39 39 38 37 37 37 37 36 36 36 35 35 35 35 36 37 37
83 80 77 71 67 63 55 49 51 59 61 58 55 54 54 55 56 55 52 49 48 48 47 47 47 48 47 46 47 47 45 42 41 39 38 40 40 39 38 37 35 34 35 35 36 37 38 38 38 37 37 36 36 35 35 34 34 33 33 34 35 35 35
85 84 82 78 73 71 67 57 50 53 58 60 58 55 54 55 55 53 50 49 48 47 47 46 47 48 50 48 47 47 46 44 42 40 40 41 42 41 39 38 37 36 35 35 35 35 36 36 36 36 35 35 34 33 33 33 33 33 33 33 35 35 34
88 87 86 84 80 77 75 69 60 53 52 57 62 61 58 55 54 53 50 47 46 45 45 44 43 45 49 50 48 46 46 45 43 43 44 45 46 44 41 39 38 38 37 37 35 34 33 33 34 34 33 32 30 30 31 32 33 33 33 33 34 34 34
89 90 89 88 85 82 80 76 71 62 53 52 59 64 63 58 53 53 52 49 46 45 44 44 43 44 47 48 46 45 45 45 45 46 47 49 51 51 46 41 40 41 40 38 36 34 33 33 33 32 31 29 28 28 29 31 32 32 32 33 33 33 34
91 91 92 92 89 86 84 80 77 72 63 56 55 60 65 63 58 55 54 53 50 47 45 45 45 46 47 47 45 44 45 47 47 45 45 48 55 58 52 45 42 43 42 40 38 36 35 35 34 33 31 29 28 28 30 31 30 30 30 31 33 34 36
94 93 93 94 93 90 87 84 81 78 74 68 61 57 59 62 62 59 57 55 53 49 46 46 47 48 48 46 45 45 47 48 48 45 42 43 49 53 52 47 44 45 44 42 40 39 38 38 36 34 33 32 31 31 31 30 29 28 30 32 35 37 39
95 95 94 94 94 93 90 87 85 83 80 77 73 64 57 56 59 60 57 55 53 50 47 46 48 50 49 48 47 47 47 48 48 47 45 44 45 46 46 45 44 45 44 43 42 41 41 41 39 37 36 35 33 33 33 31 30 31 33 35 36 39 41
94 95 95 95 95 94 92 90 88 87 84 81 79 74 64 56 54 55 56 55 54 52 50 48 49 51 52 51 50 49 49 49 49 48 47 47 47 46 45 44 44 44 44 43 43 42 43 43 41 39 38 36 34 34 34 34 34 34 35 37 38 40 41
92 93 95 96 96 96 95 93 91 89 87 84 81 77 71 64 57 54 54 56 57 57 55 52 52 53 54 53 53 52 51 52 52 50 49 49 49 48 46 45 45 45 44 43 43 43 44 44 43 42 41 38 36 35 35 36 37 37 37 38 40 42 42
Wind_Direction
196 194 191 192 197 201 195 188 185 189 195 202 204 201 197 199 206 207 201 197 198 199 197 194 196 199 202 202 200 200 200 197 197 200 202 203 201 197 195 195 194 194 194 193 191 189 186 184 178 172 163 155 148 145 144 145 147 148 150 150 149 148 145
208 208 202 197 193 197 200 194 187 186 190 197 203 205 203 204 207 208 206 201 198 200 200 196 194 196 202 206 203 201 203 204 202 202 203 205 205 203 200 199 198 199 199 197 196 194 190 188 184 176 166 158 153 151 150 153 158 159 157 155 156 154 148
215 218 218 210 197 192 198 198 193 191 193 198 204 206 205 205 207 209 208 203 200 200 201 200 196 195 199 205 206 202 204 208 209 206 204 204 205 207 207 203 201 202 202 201 201 200 195 190 184 177 169 162 157 155 156 158 162 165 163 160 159 156 148
209 211 212 210 202 194 194 196 193 193 195 199 204 205 204 204 208 213 212 207 203 200 200 202 201 198 197 200 205 206 204 208 212 211 208 206 204 207 210 208 205 203 203 204 205 203 199 194 187 177 171 165 161 159 159 163 165 166 165 163 161 156 149
195 197 199 202 200 193 192 194 193 193 195 199 202 204 206 207 211 216 216 212 207 201 200 202 204 202 198 197 200 205 206 206 209 213 213 211 208 207 210 213 211 207 205 207 207 205 202 198 191 181 173 167 163 161 162 165 169 168 166 164 162 158 153
193 195 198 201 196 188 189 192 195 198 200 201 202 204 207 210 215 220 219 214 209 205 203 203 205 205 203 198 198 202 205 206 207 211 213 214 211 208 208 212 215 214 213 211 210 208 205 202 195 187 178 168 162 163 165 167 171 171 167 165 165 162 159
200 199 199 203 204 197 193 192 195 200 202 204 204 204 207 210 213 217 217 213 210 207 205 203 204 207 207 204 200 200 203 206 207 209 212 213 212 209 210 211 213 218 219 218 217 213 210 206 202 194 183 173 165 163 166 169 173 174 171 170 169 168 166
200 198 196 200 207 208 201 196 197 198 201 206 208 208 210 212 213 214 213 212 212 209 204 202 203 205 207 208 205 202 202 205 207 207 209 211 211 210 210 209 210 214 218 221 222 219 216 213 209 201 189 178 170 166 169 172 175 178 177 176 176 174 172
199 197 193 194 200 205 203 200 199 201 204 207 207 208 210 213 214 213 212 212 212 209 204 201 202 203 205 207 207 205 203 204 207 208 208 208 209 211 211 209 209 209 210 215 219 220 219 218 214 208 197 185 178 175 177 178 178 181 183 183 182 180 178
202 198 194 193 196 199 201 201 200 202 206 206 204 204 207 210 212 211 212 212 210 208 205 202 202 203 203 204 206 207 205 205 207 209 209 207 207 210 213 212 210 207 206 209 214 216 218 218 216 212 205 197 192 189 188 187 184 185 189 189 187 186 184
205 202 198 197 197 200 202 203 203 202 204 204 202 202 202 204 208 209 211 211 209 208 207 205 203 203 202 203 206 208 207 206 207 208 209 209 208 210 213 215 214 210 208 209 211 214 217 217 215 214 213 210 206 201 197 196 192 189 192 194 192 191 189
206 207 206 203 202 202 204 205 206 205 206 205 204 203 201 199 202 205 207 209 208 208 210 208 205 204 202 203 205 208 208 209 209 208 208 209 210 212 214 215 216 214 212 212 212 214 216 216 215 215 216 216 214 209 203 201 199 195 194 196 196 194 193
205 208 211 210 208 207 207 207 208 208 208 208 207 207 204 200 199 200 203 206 208 208 208 209 208 206 204 203 205 207 209 210 210 210 210 210 211 214 216 216 216 217 217 216 215 216 217 217 216 217 218 219 217 214 208 204 204 202 198 198 198 197 196
205 207 211 213 213 212 211 210 209 209 210 210 210 211 210 205 203 203 204 205 208 208 206 206 207 207 206 204 204 205 208 210 210 210 212 212 213 214 216 217 216 217 219 220 218 218 218 218 218 219 220 220 218 215 210 204 205 207 204 201 199 199 198
205 206 209 213 216 216 215 213 211 210 211 212 212 214 214 210 207 208 209 209 210 211 209 205 204 204 204 203 201 201 204 207 209 210 212 213 215 216 216 217 217 217 219 221 220 220 220 219 220 221 222 222 220 217 212 205 204 207 207 204 202 201 201
204 205 207 211 216 218 217 216 214 212 213 213 214 216 217 214 210 210 212 212 213 213 213 210 206 203 202 200 198 198 201 204 207 210 213 215 217 219 219 218 218 219 219 220 221 222 223 222 222 222 223 224 223 218 212 206 205 206 208 207 205 204 204
204 205 208 210 214 218 219 218 217 215 215 215 215 217 218 216 213 212 214 215 215 216 215 214 214 213 209 202 198 197 199 201 205 208 212 214 216 219 222 221 220 220 221 221 221 223 224 225 224 223 224 225 225 220 212 208 208 208 208 209 209 207 207
205 205 208 211 214 217 219 220 219 218 218 218 217 217 218 217 215 214 216 217 218 220 218 213 213 219 219 213 206 201 198 196 199 203 206 210 213 215 219 221 221 221 221 222 223 224 225 225 225 225 225 226 226 223 216 211 212 211 210 210 212 211 210
208 206 208 212 216 218 219 221 221 221 221 221 220 219 217 217 216 215 217 217 219 221 220 214 210 211 215 218 217 213 204 196 196 200 202 205 209 212 215 218 219 220 220 222 224 225 226 226 226 226 226 227 227 226 222 218 217 216 213 213 214 215 215
210 209 210 212 215 217 218 218 219 219 220 221 222 221 220 218 216 216 217 219 220 220 220 220 218 211 208 212 217 220 216 206 202 203 202 202 206 210 213 216 217 218 219 220 223 225 226 227 226 227 227 228 228 228 226 225 223 221 218 216 216 217 218
212 211 212 213 214 215 216 217 217 217 219 219 220 222 222 221 219 218 218 219 221 221 220 223 225 218 209 209 213 218 220 219 216 211 205 202 203 208 212 214 216 218 219 220 222 224 226 227 227 227 228 228 229 230 229 229 229 227 224 221 220 220 220
213 212 212 213 215 216 217 218 218 218 218 218 218 220 222 222 222 222 221 220 220 221 221 222 226 224 216 213 213 215 218 222 224 219 211 204 204 206 209 212 214 217 219 219 220 222 224 226 227 228 228 229 230 231 232 233 234 233 231 228 226 224 223
212 213 214 214 214 216 218 219 218 218 219 220 221 221 220 221 223 223 224 224 221 219 220 222 226 227 222 217 215 213 214 218 222 222 218 212 208 207 208 211 213 216 218 219 220 221 222 224 226 227 228 229 229 230 232 234 236 237 236 234 232 229 227
214 213 215 216 215 215 218 219 218 217 218 220 223 223 221 221 222 222 223 224 222 219 219 220 224 227 225 222 218 213 212 215 219 223 223 219 214 210 208 210 213 216 218 219 219 220 220 221 222 224 226 227 228 228 229 231 235 238 239 239 238 235 232
220 213 211 215 216 216 216 218 219 219 219 220 223 223 221 221 223 223 223 225 223 220 219 220 222 225 225 225 223 217 214 216 220 225 226 221 217 215 212 212 215 217 219 220 219 219 220 220 221 222 223 225 227 226 227 229 232 236 238 241 242 241 239
226 221 214 209 211 214 216 217 218 219 219 220 222 223 222 221 223 224 224 224 222 221 221 221 222 224 224 223 222 219 217 218 221 225 226 221 219 220 217 215 217 220 221 221 220 220 220 220 220 221 221 223 225 226 226 226 229 233 235 239 242 244 244
226 226 222 211 203 208 214 216 217 219 221 222 222 222 222 222 222 223 223 221 220 220 222 222 223 225 226 224 221 220 220 221 221 221 222 220 220 222 222 219 219 221 222 222 221 221 221 221 221 221 221 222 224 226 226 226 228 231 233 237 240 243 245
226 225 225 220 210 204 208 214 218 222 224 224 223 221 221 222 222 222 222 221 220 221 222 222 222 225 227 226 223 221 222 223 222 219 218 219 221 224 224 223 222 223 223 223 223 223 222 222 222 221 221 223 224 225 226 227 229 231 233 235 238 241 243
225 224 224 224 220 214 210 213 219 223 224 223 222 220 221 221 221 222 222 221 221 223 223 224 224 225 227 226 223 222 221 221 222 220 217 219 223 226 225 223 223 224 225 225 225 225 224 223 223 222 222 223 224 225 226 228 230 232 234 236 237 239 241
225 225 225 225 223 222 220 217 216 219 222 223 222 220 219 220 220 221 222 220 221 223 225 225 226 226 226 226 225 223 222 221 223 223 220 219 223 226 226 223 221 222 225 227 227 227 226 226 225 224 222 223 224 225 226 228 230 232 235 238 240 241 241
227 226 226 226 225 226 227 224 218 217 220 224 223 219 217 217 218 219 219 219 221 222 223 225 227 227 225 226 227 226 224 224 225 227 224 220 221 224 225 225 223 222 223 225 227 228 228 229 229 228 226 225 225 226 227 228 230 233 236 239 243 245 245
229 228 228 228 228 227 229 229 226 222 219 221 223 221 217 216 217 218 218 218 219 221 221 223 227 226 223 225 227 227 226 227 227 227 225 222 220 220 221 224 225 224 222 223 225 226 227 228 230 231 230 228 228 228 229 230 232 234 236 239 243 246 248
228 229 230 231 230 229 229 230 229 227 221 218 220 222 220 218 219 220 220 219 220 221 222 223 223 222 222 225 227 227 227 227 227 227 225 221 218 217 218 222 226 225 223 222 223 225 225 226 228 229 230 229 228 229 231 233 234 235 237 239 243 245 247
228 228 230 231 232 231 231 230 229 227 225 221 219 220 220 220 221 221 222 222 222 222 222 222 221 220 222 225 227 226 226 226 225 225 223 220 217 217 220 224 225 223 223 223 223 223 225 225 226 226 226 226 226 228 231 233 234 236 238 240 241 243 244
229 228 229 231 232 231 231 231 229 228 228 227 225 222 220 219 219 220 222 223 223 223 223 223 221 220 222 224 225 225 226 226 223 220 218 218 218 219 222 224 224 222 222 222 223 225 226 227 227 226 225 225 225 228 232 235 236 238 240 240 241 243 245
230 230 229 230 231 231 231 231 230 229 229 230 231 229 225 219 216 218 221 224 224 223 223 223 221 220 220 222 223 224 226 226 222 218 217 218 218 219 221 222 223 224 223 223 224 227 228 229 229 228 228 228 229 230 233 235 236 239 241 243 244 246 248
231 231 231 231 231 231 231 230 231 230 230 232 233 233 232 227 221 219 221 225 226 226 225 224 222 221 220 221 221 223 225 225 223 221 220 219 219 219 220 221 224 226 226 227 228 230 231 233 233 232 232 233 233 234 236 235 236 238 241 244 246 249 251
231 231 231 232 232 232 231 230 230 231 231 232 233 234 233 232 229 226 223 225 229 230 230 228 225 223 224 223 222 221 223 225 224 223 223 222 221 221 220 222 225 227 229 230 231 232 233 234 235 235 236 235 234 236 237 237 237 238 240 243 246 249 252
Height
5885 5886 5888 5890 5892 5894 5895 5896 5897 5899 5901 5903 5904 5906 5907 5908 5909 5911 5912 5914 5915 5917 5919 5921 5923 5925 5927 5928 5930 5931 5932 5933 5934 5934 5936 5937 5938 5940 5941 5941 5943 5944 5945 5946 5948 5949 5950 5951 5952 5953 5954 5955 5956 5957 5957 5958 5958 5959 5960 5960 5960 5961 5961
5885 5886 5887 5889 5890 5892 5894 5895 5896 5898 5899 5901 5903 5904 5906 5907 5908 5910 5911 5912 5914 5915 5917 5919 5921 5924 5926 5927 5929 5930 5932 5933 5934 5934 5936 5937 5938 5940 5940 5941 5942 5943 5944 5946 5947 5949 5950 5951 5952 5953 5954 5955 5956 5957 5957 5958 5958 5959 5960 5960 5961 5961 5961
5883 5885 5887 5888 5889 5890 5892 5894 5896 5897 5898 5900 5902 5903 5905 5906 5907 5908 5909 5910 5911 5913 5916 5918 5919 5921 5923 5925 5928 5930 5931 5933 5934 5935 5936 5937 5938 5939 5940 5941 5942 5943 5944 5946 5947 5948 5949 5951 5952 5953 5954 5955 5956 5957 5958 5958 5959 5959 5960 5960 5961 5961 5961
5881 5883 5885 5886 5887 5888 5890 5892 5894 5896 5897 5899 5900 5902 5903 5904 5905 5906 5907 5908 5909 5911 5914 5916 5918 5919 5920 5923 5926 5928 5930 5932 5933 5934 5935 5936 5937 5938 5939 5941 5942 5943 5944 5945 5946 5948 5949 5950 5952 5953 5954 5955 5956 5957 5958 5958 5959 5959 5960 5960 5961 5961 5961
5878 5880 5882 5884 5886 5887 5889 5891 5893 5895 5897 5898 5899 5900 5901 5902 5903 5904 5905 5907 5908 5909 5911 5913 5915 5917 5918 5921 5923 5926 5928 5930 5931 5933 5934 5935 5936 5938 5939 5941 5942 5943 5943 5944 5946 5947 5948 5950 5951 5952 5954 5955 5956 5957 5957 5958 5958 5959 5959 5960 5960 5961 5962
5876 5878 5881 5883 5886 5887 5888 5890 5892 5894 5895 5897 5898 5898 5899 5900 5901 5903 5904 5905 5906 5907 5909 5911 5913 5915 5917 5919 5921 5923 5925 5927 5929 5931 5932 5934 5935 5937 5939 5940 5941 5942 5943 5944 5945 5946 5947 5949 5950 5951 5953 5954 5955 5956 5957 5957 5958 5958 5959 5960 5960 5961 5962
5872 5875 5878 5881 5884 5886 5887 5888 5890 5892 5893 5895 5895 5896 5897 5898 5900 5901 5902 5904 5905 5905 5907 5910 5912 5914 5916 5918 5919 5921 5923 5925 5927 5929 5931 5932 5934 5936 5937 5938 5940 5941 5942 5943 5944 5945 5947 5948 5949 5950 5952 5953 5954 5955 5956 5957 5957 5958 5959 5960 5961 5961 5962
5867 5870 5874 5877 5881 5883 5885 5886 5888 5889 5891 5892 5894 5895 5896 5897 5898 5899 5901 5903 5904 5904 5906 5907 5910 5912 5914 5916 5918 5919 5921 5923 5925 5927 5929 5931 5932 5934 5935 5936 5938 5939 5941 5943 5944 5945 5946 5947 5948 5949 5951 5952 5953 5954 5955 5956 5956 5957 5959 5960 5960 5961 5962
5862 5865 5867 5870 5874 5877 5880 5882 5884 5886 5888 5890 5892 5893 5894 5896 5897 5898 5899 5901 5902 5903 5904 5905 5907 5909 5911 5913 5915 5917 5919 5920 5922 5924 5927 5929 5931 5932 5933 5934 5935 5937 5939 5941 5942 5943 5945 5945 5946 5948 5949 5951 5952 5953 5954 5955 5955 5956 5957 5959 5960 5961 5962
5859 5860 5862 5864 5866 5869 5872 5874 5876 5879 5882 5886 5888 5891 5892 5894 5895 5896 5897 5899 5901 5902 5902 5903 5904 5906 5908 5910 5912 5914 5916 5918 5920 5922 5925 5927 5929 5931 5932 5933 5934 5935 5937 5938 5940 5942 5943 5944 5945 5946 5948 5949 5950 5951 5952 5953 5954 5955 5956 5957 5958 5960 5960
5857 5858 5859 5860 5862 5864 5866 5869 5871 5874 5877 5880 5883 5885 5888 5890 5892 5893 5895 5897 5899 5900 5900 5900 5902 5903 5905 5908 5909 5911 5913 5916 5918 5920 5923 5926 5928 5929 5931 5932 5933 5934 5935 5936 5938 5940 5941 5943 5944 5945 5946 5947 5948 5949 5951 5952 5953 5954 5955 5956 5957 5958 5959
5853 5855 5856 5857 5860 5862 5864 5866 5869 5871 5874 5876 5878 5880 5882 5884 5887 5889 5891 5893 5895 5897 5897 5898 5899 5901 5903 5905 5906 5909 5911 5913 5916 5919 5921 5924 5925 5927 5929 5930 5932 5934 5935 5936 5936 5938 5939 5941 5942 5943 5944 5945 5946 5947 5949 5950 5951 5952 5953 5954 5956 5957 5958
5849 5851 5853 5855 5857 5859 5861 5864 5866 5869 5871 5874 5876 5878 5879 5881 5882 5883 5886 5888 5890 5892 5893 5895 5896 5898 5900 5902 5904 5907 5909 5912 5915 5917 5919 5922 5923 5925 5927 5929 5931 5933 5934 5935 5936 5937 5938 5940 5941 5942 5942 5943 5944 5945 5947 5948 5949 5950 5952 5953 5954 5956 5957
5845 5847 5850 5852 5854 5856 5859 5861 5863 5865 5868 5870 5873 5875 5877 5879 5880 5881 5882 5884 5885 5887 5889 5890 5892 5894 5896 5898 5901 5904 5907 5910 5912 5914 5916 5918 5920 5922 5924 5927 5929 5931 5932 5933 5935 5936 5937 5938 5939 5940 5941 5941 5942 5943 5945 5946 5947 5948 5950 5951 5953 5954 5955
5842 5843 5846 5848 5851 5853 5855 5857 5859 5861 5864 5867 5869 5872 5874 5876 5878 5879 5880 5882 5882 5884 5885 5885 5886 5889 5891 5894 5897 5900 5903 5906 5908 5911 5913 5915 5917 5919 5922 5924 5926 5928 5929 5931 5933 5935 5936 5937 5937 5938 5939 5940 5941 5942 5943 5944 5945 5946 5948 5949 5951 5952 5953
5838 5839 5842 5844 5846 5849 5851 5854 5856 5858 5860 5863 5865 5868 5870 5872 5874 5876 5877 5878 5879 5880 5882 5883 5885 5885 5886 5889 5892 5895 5898 5901 5905 5908 5910 5913 5915 5918 5920 5921 5923 5925 5927 5929 5930 5932 5933 5935 5936 5937 5938 5939 5940 5941 5942 5942 5943 5944 5945 5946 5948 5950 5951
5834 5836 5838 5840 5842 5844 5847 5849 5852 5855 5856 5858 5861 5863 5866 5868 5870 5872 5873 5875 5877 5878 5879 5883 5887 5889 5889 5889 5889 5890 5894 5897 5900 5903 5906 5909 5912 5914 5916 5918 5921 5923 5925 5926 5928 5929 5930 5932 5934 5936 5937 5937 5938 5939 5940 5941 5941 5941 5942 5943 5945 5947 5948
5831 5832 5834 5836 5838 5840 5842 5845 5848 5851 5853 5855 5857 5859 5861 5864 5866 5868 5869 5872 5875 5876 5877 5880 5884 5889 5892 5892 5889 5888 5889 5891 5894 5897 5900 5903 5906 5908 5911 5913 5916 5919 5922 5924 5925 5926 5927 5929 5931 5933 5934 5935 5936 5938 5939 5939 5939 5939 5940 5941 5942 5944 5945
5827 5828 5829 5832 5834 5836 5838 5840 5843 5846 5849 5851 5853 5855 5857 5859 5862 5864 5866 5868 5870 5872 5876 5878 5878 5881 5887 5892 5893 5891 5889 5886 5888 5891 5893 5896 5900 5903 5905 5908 5911 5914 5918 5920 5922 5923 5925 5927 5929 5930 5931 5933 5934 5936 5936 5937 5937 5937 5937 5938 5939 5940 5942
5822 5824 5825 5827 5830 5832 5834 5835 5838 5841 5843 5846 5848 5851 5853 5855 5858 5860 5862 5864 5866 5870 5875 5877 5877 5878 5882 5886 5890 5892 5891 5888 5887 5889 5889 5891 5894 5898 5901 5904 5907 5910 5913 5915 5917 5920 5922 5924 5926 5927 5928 5930 5932 5933 5934 5934 5935 5935 5935 5935 5936 5937 5939
5816 5819 5821 5823 5825 5827 5829 5831 5833 5835 5838 5841 5844 5847 5849 5852 5854 5856 5858 5860 5863 5867 5871 5873 5875 5878 5879 5881 5884 5887 5890 5892 5892 5891 5890 5889 5890 5893 5897 5901 5904 5906 5908 5910 5913 5916 5919 5921 5922 5924 5925 5927 5928 5930 5931 5932 5932 5932 5933 5933 5933 5934 5935
5810 5813 5815 5817 5820 5822 5824 5826 5829 5831 5833 5836 5839 5842 5845 5847 5850 5853 5856 5857 5860 5863 5866 5868 5871 5875 5877 5878 5880 5882 5885 5888 5890 5892 5891 5889 5888 5890 5893 5897 5900 5903 5905 5906 5908 5911 5914 5916 5919 5921 5922 5923 5925 5927 5928 5929 5929 5930 5930 5931 5931 5931 5932
5804 5807 5809 5811 5814 5817 5819 5821 5824 5826 5828 5831 5834 5837 5840 5843 5846 5850 5852 5853 5856 5859 5862 5865 5867 5870 5873 5875 5876 5877 5878 5880 5883 5887 5889 5889 5888 5889 5891 5893 5896 5898 5900 5902 5905 5907 5910 5912 5915 5917 5918 5919 5921 5923 5925 5926 5926 5927 5928 5928 5928 5929 5930
5797 5800 5803 5804 5807 5810 5814 5816 5818 5821 5824 5826 5829 5832 5836 5839 5841 5844 5847 5848 5851 5855 5858 5860 5863 5866 5868 5870 5871 5872 5874 5875 5878 5882 5885 5888 5888 5888 5889 5890 5892 5894 5896 5899 5901 5903 5905 5907 5909 5912 5914 5915 5917 5919 5921 5922 5923 5923 5924 5925 5925 5927 5928
5789 5792 5795 5798 5800 5803 5807 5810 5812 5815 5818 5821 5824 5828 5831 5834 5836 5840 5843 5845 5848 5851 5854 5856 5859 5862 5864 5867 5869 5871 5872 5874 5877 5880 5883 5886 5887 5887 5887 5887 5889 5891 5892 5895 5898 5900 5901 5903 5905 5907 5909 5911 5913 5915 5917 5918 5919 5920 5921 5922 5922 5924 5926
5782 5784 5788 5791 5793 5796 5800 5803 5807 5810 5812 5815 5819 5822 5826 5829 5831 5835 5839 5842 5845 5848 5850 5853 5855 5858 5861 5863 5866 5868 5870 5872 5875 5878 5881 5884 5885 5885 5885 5885 5886 5888 5890 5892 5894 5896 5897 5899 5901 5903 5905 5907 5909 5910 5912 5914 5914 5916 5917 5918 5919 5921 5923
5775 5778 5781 5784 5787 5790 5794 5797 5801 5804 5807 5810 5813 5816 5820 5824 5827 5831 5835 5838 5841 5843 5846 5849 5851 5854 5857 5859 5862 5865 5867 5869 5871 5875 5878 5881 5882 5882 5883 5883 5884 5886 5887 5889 5891 5892 5894 5896 5898 5900 5902 5903 5905 5906 5908 5910 5911 5912 5914 5915 5917 5918 5919
5768 5772 5775 5777 5780 5784 5788 5792 5795 5798 5801 5804 5807 5810 5814 5819 5823 5826 5830 5833 5837 5839 5841 5844 5847 5850 5852 5855 5858 5861 5864 5866 5868 5870 5874 5876 5878 5880 5881 5882 5882 5884 5885 5886 5888 5890 5892 5894 5896 5898 5899 5900 5902 5903 5905 5906 5907 5908 5910 5912 5914 5915 5916
5762 5765 5768 5771 5773 5777 5781 5786 5789 5792 5795 5798 5801 5805 5808 5813 5817 5821 5825 5829 5832 5834 5837 5840 5843 5846 5849 5851 5854 5857 5859 5861 5863 5865 5868 5871 5874 5877 5878 5879 5880 5882 5883 5884 5886 5887 5889 5891 5893 5895 5897 5898 5899 5901 5902 5902 5904 5905 5907 5909 5910 5911 5912
5754 5758 5761 5764 5767 5770 5773 5778 5783 5787 5790 5793 5796 5800 5803 5807 5812 5816 5820 5823 5827 5829 5832 5836 5839 5842 5845 5847 5849 5852 5855 5857 5858 5860 5862 5865 5869 5872 5874 5876 5877 5879 5881 5882 5884 5885 5887 5888 5890 5893 5895 5896 5897 5898 5899 5900 5901 5902 5904 5905 5906 5907 5908
5746 5750 5753 5757 5760 5762 5766 5771 5776 5781 5785 5788 5791 5795 5798 5802 5806 5810 5814 5818 5821 5824 5828 5831 5834 5838 5841 5843 5845 5848 5850 5852 5854 5855 5858 5861 5864 5868 5871 5872 5873 5875 5877 5879 5881 5883 5885 5887 5888 5890 5892 5894 5895 5896 5897 5898 5898 5900 5901 5902 5903 5904 5905
5739 5742 5745 5749 5753 5756 5759 5764 5769 5774 5778 5782 5785 5789 5793 5796 5800 5804 5808 5812 5815 5819 5823 5826 5829 5833 5836 5838 5840 5843 5846 5848 5850 5852 5854 5857 5860 5863 5866 5868 5870 5871 5873 5875 5877 5880 5883 5885 5886 5888 5890 5891 5893 5894 5895 5895 5896 5897 5898 5899 5900 5901 5902
5733 5735 5736 5740 5744 5749 5753 5757 5762 5767 5771 5775 5779 5783 5787 5791 5794 5798 5802 5806 5810 5814 5818 5821 5825 5828 5831 5833 5835 5838 5841 5843 5845 5847 5849 5852 5855 5858 5861 5863 5865 5867 5869 5871 5874 5877 5880 5882 5884 5885 5887 5889 5890 5891 5891 5893 5894 5895 5896 5897 5898 5898 5898
5724 5728 5730 5731 5735 5741 5746 5750 5755 5760 5764 5768 5773 5776 5780 5784 5788 5792 5795 5800 5804 5808 5813 5816 5820 5823 5826 5828 5831 5833 5836 5838 5840 5841 5843 5846 5849 5852 5855 5858 5861 5863 5865 5868 5870 5873 5876 5878 5880 5882 5885 5886 5887 5887 5888 5889 5891 5892 5893 5894 5894 5893 5892
5714 5720 5723 5725 5727 5732 5738 5743 5748 5753 5757 5761 5765 5770 5774 5777 5782 5786 5789 5793 5798 5803 5807 5811 5814 5818 5821 5823 5826 5828 5830 5832 5835 5837 5839 5841 5843 5846 5850 5853 5856 5859 5861 5864 5866 5869 5871 5874 5876 5879 5881 5882 5882 5883 5884 5886 5889 5890 5889 5889 5889 5888 5888
5704 5710 5716 5718 5720 5724 5730 5735 5740 5745 5750 5753 5757 5762 5767 5771 5775 5779 5783 5787 5792 5796 5801 5805 5809 5812 5816 5818 5821 5823 5825 5827 5830 5832 5835 5837 5839 5842 5846 5850 5852 5855 5857 5860 5862 5864 5866 5869 5872 5874 5876 5877 5879 5880 5882 5884 5885 5885 5884 5885 5885 5885 5884
5695 5700 5706 5710 5713 5716 5721 5727 5731 5736 5741 5745 5749 5754 5760 5765 5769 5773 5777 5781 5785 5790 5794 5799 5802 5806 5810 5813 5815 5818 5820 5822 5825 5828 5830 5833 5835 5838 5842 5846 5848 5850 5852 5855 5857 5860 5862 5865 5868 5870 5871 5873 5876 5877 5878 5879 5880 5880 5880 5881 5881 5881 5880
5686 5691 5696 5700 5705 5709 5712 5717 5722 5726 5732 5737 5741 5746 5753 5758 5762 5767 5771 5775 5779 5784 5788 5792 5796 5800 5803 5807 5810 5812 5815 5817 5820 5823 5826 5828 5831 5834 5837 5840 5842 5845 5848 5851 5853 5856 5858 5861 5863 5865 5867 5869 5871 5872 5873 5874 5874 5874 5875 5876 5876 5876 5876